| time (UTC) | temp F | wind direction | speed knots | gust knots | rain 1hr in | rain 24hr in | rain mn in | humidity % | barometer mb |
| 20260502231708 | 54 | 201 | 0.0 | 0.0 | 0.00 | 0.00 | 0.00 | 82 | 1017.0 |
| 20260502231655 | 54 | 201 | 0.0 | 0.0 | 0.00 | 0.00 | 0.00 | 83 | 1017.1 |
| 20260502230710 | 54 | 201 | 0.0 | 0.0 | 0.00 | 0.00 | 0.00 | 83 | 1017.1 |
| 20260502230209 | 54 | 202 | 0.0 | 0.0 | 0.00 | 0.00 | 0.00 | 84 | 1017.1 |
| 20260502225708 | 54 | 202 | 0.0 | 0.0 | 0.00 | 0.00 | 0.00 | 84 | 1017.0 |
| 20260502225205 | 54 | 202 | 0.0 | 0.0 | 0.00 | 0.00 | 0.00 | 83 | 1017.1 |
| 20260502224706 | 55 | 202 | 0.0 | 0.0 | 0.00 | 0.00 | 0.00 | 83 | 1017.1 |
| 20260502224206 | 55 | 202 | 0.0 | 0.0 | 0.00 | 0.00 | 0.00 | 83 | 1017.1 |
| 20260502223703 | 55 | 201 | 0.0 | 0.0 | 0.00 | 0.00 | 0.00 | 83 | 1017.2 |
| 20260502223201 | 55 | 201 | 0.0 | 0.0 | 0.00 | 0.00 | 0.00 | 82 | 1017.1 |
| 20260502223147 | 56 | 201 | 0.0 | 0.0 | 0.00 | 0.00 | 0.00 | 82 | 1017.2 |
| 20260502222158 | 56 | 201 | 0.0 | 0.0 | 0.00 | 0.00 | 0.00 | 82 | 1017.2 |
| 20260502221700 | 56 | 201 | 0.0 | 0.0 | 0.00 | 0.00 | 0.00 | 81 | 1017.2 |
| 20260502221649 | 56 | 201 | 0.0 | 0.0 | 0.00 | 0.00 | 0.00 | 81 | 1017.2 |
| 20260502220700 | 56 | 201 | 0.0 | 0.0 | 0.00 | 0.00 | 0.00 | 81 | 1017.2 |
| 20260502220158 | 56 | 201 | 0.0 | 0.0 | 0.00 | 0.00 | 0.00 | 80 | 1017.4 |
| 20260502215657 | 56 | 201 | 0.0 | 0.0 | 0.00 | 0.00 | 0.00 | 80 | 1017.2 |
| 20260502215151 | 57 | 201 | 0.0 | 0.0 | 0.00 | 0.00 | 0.00 | 79 | 1017.2 |
| 20260502214644 | 57 | 201 | 0.0 | 0.0 | 0.00 | 0.00 | 0.00 | 78 | 1017.2 |
| 20260502214139 | 58 | 201 | 0.0 | 0.0 | 0.00 | 0.00 | 0.00 | 77 | 1017.4 |
| 20260502213853 | 58 | 201 | 0.0 | 0.0 | 0.00 | 0.00 | 0.00 | 78 | 1017.4 |
| 20260502213753 | 58 | 201 | 0.0 | 0.0 | 0.00 | 0.00 | 0.00 | 77 | 1017.2 |
| 20260502213348 | 58 | 201 | 0.0 | 0.0 | 0.00 | 0.00 | 0.00 | 77 | 1017.2 |
| 20260502212116 | 59 | 201 | 0.0 | 0.0 | 0.00 | 0.00 | 0.00 | 77 | 1017.2 |
| 20260502211609 | 59 | 201 | 0.0 | 0.0 | 0.00 | 0.00 | 0.00 | 77 | 1017.2 |
| 20260502211103 | 59 | 201 | 0.0 | 0.0 | 0.00 | 0.00 | 0.00 | 76 | 1017.2 |
| 20260502211039 | 59 | 201 | 0.0 | 0.0 | 0.00 | 0.00 | 0.00 | 76 | 1017.2 |
| 20260502210051 | 59 | 201 | 0.0 | 0.0 | 0.00 | 0.00 | 0.00 | 76 | 1017.2 |
| 20260502205545 | 60 | 201 | 0.0 | 0.0 | 0.00 | 0.00 | 0.00 | 75 | 1017.4 |
| 20260502205039 | 60 | 201 | 0.0 | 0.0 | 0.00 | 0.00 | 0.00 | 75 | 1017.1 |
| 20260502204533 | 60 | 201 | 0.0 | 0.0 | 0.00 | 0.00 | 0.00 | 74 | 1017.2 |
| 20260502204027 | 60 | 201 | 0.0 | 0.0 | 0.00 | 0.00 | 0.00 | 74 | 1017.4 |
| 20260502203521 | 60 | 201 | 0.0 | 0.0 | 0.00 | 0.00 | 0.00 | 74 | 1017.2 |
| 20260502203503 | 61 | 201 | 0.0 | 0.0 | 0.00 | 0.00 | 0.00 | 73 | 1017.1 |
| 20260502202509 | 61 | 201 | 0.0 | 0.0 | 0.00 | 0.00 | 0.00 | 73 | 1017.1 |
| 20260502202009 | 61 | 201 | 0.0 | 0.0 | 0.00 | 0.00 | 0.00 | 72 | 1017.1 |
| 20260502201506 | 62 | 201 | 0.0 | 0.0 | 0.00 | 0.00 | 0.00 | 71 | 1017.0 |
| 20260502201006 | 62 | 201 | 0.0 | 0.0 | 0.00 | 0.00 | 0.00 | 71 | 1017.0 |
| 20260502200508 | 62 | 201 | 0.0 | 0.0 | 0.00 | 0.00 | 0.00 | 70 | 1016.9 |
| 20260502200007 | 63 | 201 | 0.0 | 0.9 | 0.00 | 0.00 | 0.00 | 69 | 1016.8 |
| 20260502195506 | 63 | 201 | 0.0 | 0.9 | 0.00 | 0.00 | 0.00 | 68 | 1016.7 |
| 20260502195007 | 63 | 201 | 0.0 | 0.9 | 0.00 | 0.00 | 0.00 | 68 | 1016.8 |
| 20260502194507 | 63 | 201 | 0.0 | 1.7 | 0.00 | 0.00 | 0.00 | 67 | 1016.7 |
| 20260502194455 | 64 | 201 | 0.0 | 1.7 | 0.00 | 0.00 | 0.00 | 67 | 1016.6 |
| 20260502193506 | 64 | 201 | 0.0 | 0.0 | 0.00 | 0.00 | 0.00 | 67 | 1016.6 |
| 20260502193007 | 65 | 201 | 0.0 | 1.7 | 0.00 | 0.00 | 0.00 | 66 | 1016.5 |
| 20260502192506 | 65 | 201 | 0.0 | 1.7 | 0.00 | 0.00 | 0.00 | 65 | 1016.5 |
| 20260502192006 | 65 | 269 | 0.0 | 0.9 | 0.00 | 0.00 | 0.00 | 65 | 1016.5 |
| 20260502191505 | 66 | 269 | 0.0 | 0.0 | 0.00 | 0.00 | 0.00 | 64 | 1016.5 |
| 20260502191006 | 66 | 269 | 0.0 | 1.7 | 0.00 | 0.00 | 0.00 | 64 | 1016.5 |
| 20260502190507 | 67 | 269 | 0.0 | 1.7 | 0.00 | 0.00 | 0.00 | 63 | 1016.4 |
| 20260502190008 | 67 | 284 | 0.0 | 0.9 | 0.00 | 0.00 | 0.00 | 62 | 1016.4 |
| 20260502185502 | 68 | 284 | 0.0 | 0.9 | 0.00 | 0.00 | 0.00 | 62 | 1016.6 |
| 20260502184956 | 68 | 284 | 0.0 | 0.9 | 0.00 | 0.00 | 0.00 | 60 | 1016.4 |
| 20260502184450 | 69 | 284 | 0.0 | 1.7 | 0.00 | 0.00 | 0.00 | 60 | 1016.4 |
| 20260502183944 | 69 | 284 | 0.0 | 1.7 | 0.00 | 0.00 | 0.00 | 58 | 1016.4 |
| 20260502183438 | 70 | 288 | 0.0 | 0.9 | 0.00 | 0.00 | 0.00 | 58 | 1016.3 |
| 20260502183409 | 70 | 287 | 0.0 | 0.9 | 0.00 | 0.00 | 0.00 | 55 | 1016.3 |
| 20260502182426 | 71 | 288 | 0.0 | 0.9 | 0.00 | 0.00 | 0.00 | 54 | 1016.3 |
| 20260502181920 | 71 | 287 | 0.0 | 0.9 | 0.00 | 0.00 | 0.00 | 54 | 1016.2 |
| 20260502181414 | 71 | 288 | 0.0 | 0.9 | 0.00 | 0.00 | 0.00 | 53 | 1016.2 |
| 20260502180909 | 72 | 288 | 0.0 | 0.9 | 0.00 | 0.00 | 0.00 | 54 | 1016.1 |
| 20260502180847 | 72 | 288 | 0.0 | 0.9 | 0.00 | 0.00 | 0.00 | 53 | 1016.1 |
| 20260502164325 | 76 | 43 | 0.0 | 0.9 | 0.00 | 0.00 | 0.00 | 44 | 1015.7 |
| 20260502163825 | 76 | 43 | 0.0 | 1.7 | 0.00 | 0.00 | 0.00 | 45 | 1015.8 |
| 20260502163323 | 76 | 43 | 0.0 | 1.7 | 0.00 | 0.00 | 0.00 | 42 | 1015.8 |
| 20260502162824 | 76 | 43 | 0.0 | 1.7 | 0.00 | 0.00 | 0.00 | 45 | 1015.8 |
| 20260502162320 | 76 | 36 | 0.0 | 4.3 | 0.00 | 0.00 | 0.00 | 44 | 1015.8 |
| 20260502161821 | 76 | 36 | 0.9 | 4.3 | 0.00 | 0.00 | 0.00 | 42 | 1015.9 |
| 20260502161318 | 77 | 36 | 0.0 | 3.5 | 0.00 | 0.00 | 0.00 | 42 | 1016.0 |
| 20260502160816 | 77 | 326 | 0.0 | 3.5 | 0.00 | 0.00 | 0.00 | 40 | 1016.0 |
| 20260502160315 | 77 | 323 | 0.0 | 3.5 | 0.00 | 0.00 | 0.00 | 40 | 1016.1 |
| 20260502160257 | 77 | 27 | 0.9 | 6.1 | 0.00 | 0.00 | 0.00 | 40 | 1016.2 |
| 20260502151812 | 79 | 28 | 1.7 | 6.1 | 0.00 | 0.00 | 0.00 | 38 | 1016.5 |
| 20260502151311 | 79 | 78 | 1.7 | 7.0 | 0.00 | 0.00 | 0.00 | 37 | 1016.5 |
| 20260502150813 | 80 | 23 | 0.9 | 7.0 | 0.00 | 0.00 | 0.00 | 38 | 1016.4 |
| 20260502150313 | 79 | 63 | 0.9 | 6.1 | 0.00 | 0.00 | 0.00 | 37 | 1016.5 |
| 20260502130312 | 79 | 49 | 0.9 | 5.2 | 0.00 | 0.00 | 0.00 | 41 | 1018.3 |
| 20260502130252 | 79 | 355 | 0.9 | 4.3 | 0.00 | 0.00 | 0.00 | 41 | 1018.4 |
| 20260502123758 | 78 | 31 | 0.0 | 5.2 | 0.00 | 0.00 | 0.00 | 43 | 1018.7 |
| 20260502123252 | 77 | 44 | 0.9 | 6.1 | 0.00 | 0.00 | 0.00 | 42 | 1018.8 |
| 20260502122746 | 78 | 309 | 1.7 | 6.1 | 0.00 | 0.00 | 0.00 | 40 | 1018.8 |
| 20260502122736 | 78 | 36 | 0.9 | 6.1 | 0.00 | 0.00 | 0.00 | 43 | 1019.0 |
| 20260502121734 | 78 | 30 | 0.9 | 6.1 | 0.00 | 0.00 | 0.00 | 44 | 1018.9 |
| 20260502121228 | 78 | 47 | 1.7 | 7.0 | 0.00 | 0.00 | 0.00 | 43 | 1019.0 |
| 20260502120722 | 78 | 26 | 1.7 | 7.0 | 0.00 | 0.00 | 0.00 | 41 | 1019.1 |
| 20260502120704 | 78 | 51 | 0.0 | 6.1 | 0.00 | 0.00 | 0.00 | 44 | 1019.1 |
| 20260502115710 | 78 | 280 | 0.0 | 1.7 | 0.00 | 0.00 | 0.00 | 43 | 1019.2 |
| 20260502115204 | 77 | 277 | 0.9 | 7.0 | 0.00 | 0.00 | 0.00 | 42 | 1019.3 |
| 20260502114658 | 77 | 257 | 1.7 | 7.8 | 0.00 | 0.00 | 0.00 | 46 | 1019.3 |
| 20260502114152 | 77 | 84 | 0.9 | 7.8 | 0.00 | 0.00 | 0.00 | 44 | 1019.5 |
| 20260502113646 | 77 | 37 | 0.9 | 4.3 | 0.00 | 0.00 | 0.00 | 44 | 1019.5 |
| 20260502113140 | 76 | 34 | 0.9 | 4.3 | 0.00 | 0.00 | 0.00 | 44 | 1019.6 |
| 20260502112633 | 77 | 40 | 0.9 | 6.1 | 0.00 | 0.00 | 0.00 | 44 | 1019.7 |
| 20260502112128 | 76 | 35 | 0.9 | 7.0 | 0.00 | 0.00 | 0.00 | 47 | 1019.7 |
| 20260502111622 | 76 | 30 | 0.9 | 7.0 | 0.00 | 0.00 | 0.00 | 45 | 1019.8 |
| 20260502111116 | 76 | 281 | 0.9 | 4.3 | 0.00 | 0.00 | 0.00 | 46 | 1019.9 |
| 20260502110610 | 76 | 34 | 0.9 | 7.0 | 0.00 | 0.00 | 0.00 | 51 | 1020.1 |
| 20260502110104 | 76 | 32 | 1.7 | 7.0 | 0.00 | 0.00 | 0.00 | 47 | 1020.1 |
| 20260502105558 | 75 | 49 | 1.7 | 7.0 | 0.00 | 0.00 | 0.00 | 49 | 1020.2 |
| 20260502105542 | 76 | 36 | 0.9 | 7.0 | 0.00 | 0.00 | 0.00 | 47 | 1020.3 |
| 20260502104546 | 75 | 284 | 0.9 | 6.1 | 0.00 | 0.00 | 0.00 | 47 | 1020.3 |
| 20260502104040 | 75 | 33 | 0.9 | 6.1 | 0.00 | 0.00 | 0.00 | 48 | 1020.4 |
| 20260502103533 | 75 | 36 | 0.0 | 4.3 | 0.00 | 0.00 | 0.00 | 49 | 1020.4 |
| 20260502103029 | 74 | 36 | 0.9 | 4.3 | 0.00 | 0.00 | 0.00 | 49 | 1020.6 |
| 20260502102742 | 74 | 293 | 0.9 | 3.5 | 0.00 | 0.00 | 0.00 | 49 | 1020.6 |
| 20260502102016 | 74 | 41 | 0.9 | 5.2 | 0.00 | 0.00 | 0.00 | 47 | 1020.8 |
| 20260502101510 | 74 | 55 | 0.9 | 4.3 | 0.00 | 0.00 | 0.00 | 47 | 1020.9 |
| 20260502101004 | 74 | 36 | 0.9 | 4.3 | 0.00 | 0.00 | 0.00 | 50 | 1020.9 |
| 20260502100458 | 74 | 25 | 0.0 | 3.5 | 0.00 | 0.00 | 0.00 | 48 | 1021.0 |
| 20260502100444 | 73 | 29 | 0.0 | 3.5 | 0.00 | 0.00 | 0.00 | 50 | 1021.1 |
| 20260502091358 | 69 | 355 | 0.0 | 0.0 | 0.00 | 0.00 | 0.00 | 49 | 1021.8 |
| 20260502090851 | 69 | 355 | 0.0 | 0.0 | 0.00 | 0.00 | 0.00 | 51 | 1021.8 |
| 20260502090346 | 69 | 355 | 0.0 | 0.0 | 0.00 | 0.00 | 0.00 | 48 | 1021.8 |
| 20260502071140 | 56 | 201 | 0.0 | 0.0 | 0.00 | 0.00 | 0.00 | 66 | 1022.8 |
| 20260502071118 | 55 | 201 | 0.0 | 0.0 | 0.00 | 0.00 | 0.00 | 69 | 1022.8 |
| 20260502070135 | 54 | 201 | 0.0 | 0.0 | 0.00 | 0.00 | 0.00 | 72 | 1022.8 |
| 20260502070118 | 53 | 201 | 0.0 | 0.0 | 0.00 | 0.00 | 0.00 | 74 | 1022.9 |
| 20260502065136 | 51 | 201 | 0.0 | 0.0 | 0.00 | 0.00 | 0.00 | 76 | 1022.9 |
| 20260502064634 | 51 | 201 | 0.0 | 0.0 | 0.00 | 0.00 | 0.00 | 76 | 1022.9 |
| 20260502064131 | 50 | 201 | 0.0 | 0.0 | 0.00 | 0.00 | 0.00 | 80 | 1022.9 |
| 20260502063631 | 49 | 201 | 0.0 | 0.0 | 0.00 | 0.00 | 0.00 | 81 | 1022.8 |
| 20260502063129 | 48 | 201 | 0.0 | 0.0 | 0.00 | 0.00 | 0.00 | 82 | 1022.8 |
| 20260502062934 | 47 | 201 | 0.0 | 0.0 | 0.00 | 0.00 | 0.00 | 82 | 1022.9 |
| 20260502062847 | 47 | 201 | 0.0 | 0.0 | 0.00 | 0.00 | 0.00 | 83 | 1022.8 |
| 20260502061623 | 47 | 201 | 0.0 | 0.0 | 0.00 | 0.00 | 0.00 | 82 | 1022.8 |
| 20260502061122 | 46 | 201 | 0.0 | 0.0 | 0.00 | 0.00 | 0.00 | 83 | 1022.9 |
| 20260502060622 | 46 | 201 | 0.0 | 0.0 | 0.00 | 0.00 | 0.00 | 83 | 1022.8 |
| 20260502060122 | 45 | 201 | 0.0 | 0.0 | 0.00 | 0.00 | 0.00 | 85 | 1022.9 |
| 20260502060110 | 45 | 201 | 0.0 | 0.0 | 0.00 | 0.00 | 0.00 | 85 | 1023.0 |
| 20260502055121 | 44 | 201 | 0.0 | 0.0 | 0.00 | 0.00 | 0.00 | 86 | 1023.0 |
| 20260502055111 | 44 | 201 | 0.0 | 0.0 | 0.00 | 0.00 | 0.00 | 86 | 1022.9 |
| 20260502054117 | 44 | 201 | 0.0 | 0.0 | 0.00 | 0.00 | 0.00 | 86 | 1022.9 |
| 20260502053617 | 44 | 201 | 0.0 | 0.0 | 0.00 | 0.00 | 0.00 | 86 | 1022.9 |
| 20260502053116 | 44 | 201 | 0.0 | 0.0 | 0.00 | 0.00 | 0.00 | 86 | 1023.0 |
| 20260502052615 | 43 | 201 | 0.0 | 0.0 | 0.00 | 0.00 | 0.00 | 86 | 1022.9 |
| 20260502052118 | 43 | 201 | 0.0 | 0.0 | 0.00 | 0.00 | 0.00 | 86 | 1022.9 |
| 20260502052114 | 43 | 201 | 0.0 | 0.0 | 0.00 | 0.00 | 0.00 | 87 | 1022.9 |
| 20260502051115 | 43 | 201 | 0.0 | 0.0 | 0.00 | 0.00 | 0.00 | 86 | 1022.9 |
| 20260502050614 | 43 | 201 | 0.0 | 0.0 | 0.00 | 0.00 | 0.00 | 86 | 1022.8 |
| 20260502050116 | 43 | 201 | 0.0 | 0.0 | 0.00 | 0.00 | 0.00 | 86 | 1022.8 |
| 20260502045611 | 43 | 201 | 0.0 | 0.0 | 0.00 | 0.00 | 0.00 | 86 | 1022.8 |
| 20260502045111 | 43 | 201 | 0.0 | 0.0 | 0.00 | 0.00 | 0.00 | 86 | 1022.6 |
| 20260502044611 | 43 | 201 | 0.0 | 0.0 | 0.00 | 0.00 | 0.00 | 86 | 1022.6 |
| 20260502044111 | 43 | 201 | 0.0 | 0.0 | 0.00 | 0.00 | 0.00 | 86 | 1022.8 |
| 20260502043610 | 43 | 201 | 0.0 | 0.0 | 0.00 | 0.00 | 0.00 | 86 | 1022.8 |
| 20260502043118 | 43 | 201 | 0.0 | 0.0 | 0.00 | 0.00 | 0.00 | 86 | 1022.6 |
| 20260502042611 | 43 | 201 | 0.0 | 0.0 | 0.00 | 0.00 | 0.00 | 86 | 1022.6 |
| 20260502042111 | 43 | 201 | 0.0 | 0.0 | 0.00 | 0.00 | 0.00 | 85 | 1022.8 |
| 20260502041612 | 43 | 201 | 0.0 | 0.0 | 0.00 | 0.00 | 0.00 | 86 | 1022.8 |
| 20260502041111 | 43 | 201 | 0.0 | 0.0 | 0.00 | 0.00 | 0.00 | 86 | 1022.8 |
| 20260502040612 | 43 | 201 | 0.0 | 0.0 | 0.00 | 0.00 | 0.00 | 86 | 1022.6 |
| 20260502040110 | 43 | 201 | 0.0 | 0.0 | 0.00 | 0.00 | 0.00 | 86 | 1022.6 |
| 20260502035611 | 43 | 201 | 0.0 | 0.0 | 0.00 | 0.00 | 0.00 | 86 | 1022.6 |
| 20260502035112 | 43 | 201 | 0.0 | 0.0 | 0.00 | 0.00 | 0.00 | 86 | 1022.6 |
| 20260502035058 | 43 | 201 | 0.0 | 0.0 | 0.00 | 0.00 | 0.00 | 85 | 1022.6 |
| 20260502034111 | 43 | 201 | 0.0 | 0.0 | 0.00 | 0.00 | 0.00 | 86 | 1022.6 |
| 20260502033611 | 43 | 201 | 0.0 | 0.0 | 0.00 | 0.00 | 0.00 | 86 | 1022.5 |
| 20260502033109 | 43 | 201 | 0.0 | 0.0 | 0.00 | 0.00 | 0.00 | 86 | 1022.5 |
| 20260502033047 | 43 | 201 | 0.0 | 0.0 | 0.00 | 0.00 | 0.00 | 86 | 1022.6 |
| 20260502032057 | 43 | 201 | 0.0 | 0.0 | 0.00 | 0.00 | 0.00 | 85 | 1022.6 |
| 20260502031550 | 43 | 201 | 0.0 | 0.0 | 0.00 | 0.00 | 0.00 | 85 | 1022.6 |
| 20260502031045 | 43 | 201 | 0.0 | 0.0 | 0.00 | 0.00 | 0.00 | 85 | 1022.6 |
| 20260502030539 | 43 | 201 | 0.0 | 0.0 | 0.00 | 0.00 | 0.00 | 85 | 1022.6 |
| 20260502030033 | 43 | 201 | 0.0 | 0.0 | 0.00 | 0.00 | 0.00 | 84 | 1022.8 |
| 20260502025527 | 43 | 201 | 0.0 | 0.0 | 0.00 | 0.00 | 0.00 | 84 | 1022.6 |
| 20260502025021 | 43 | 201 | 0.0 | 0.0 | 0.00 | 0.00 | 0.00 | 84 | 1022.6 |
| 20260502024515 | 44 | 202 | 0.0 | 0.0 | 0.00 | 0.00 | 0.00 | 84 | 1022.6 |
| 20260502024009 | 44 | 202 | 0.0 | 0.0 | 0.00 | 0.00 | 0.00 | 84 | 1022.6 |
| 20260502023503 | 44 | 201 | 0.0 | 0.0 | 0.00 | 0.00 | 0.00 | 85 | 1022.6 |
| 20260502023443 | 44 | 200 | 0.0 | 0.0 | 0.00 | 0.00 | 0.00 | 84 | 1022.8 |
| 20260502022451 | 44 | 200 | 0.0 | 0.0 | 0.00 | 0.00 | 0.00 | 84 | 1022.8 |
| 20260502022435 | 44 | 201 | 0.0 | 0.0 | 0.00 | 0.00 | 0.00 | 84 | 1022.9 |
| 20260502021439 | 44 | 201 | 0.0 | 0.0 | 0.00 | 0.00 | 0.00 | 84 | 1022.8 |
| 20260502020933 | 44 | 201 | 0.0 | 0.0 | 0.00 | 0.00 | 0.00 | 84 | 1022.6 |
| 20260502020427 | 44 | 201 | 0.0 | 0.0 | 0.00 | 0.00 | 0.00 | 84 | 1022.5 |
| 20260502015921 | 44 | 201 | 0.0 | 0.0 | 0.00 | 0.00 | 0.00 | 84 | 1022.6 |
| 20260502015415 | 44 | 201 | 0.0 | 0.0 | 0.00 | 0.00 | 0.00 | 83 | 1022.5 |
| 20260502014909 | 44 | 201 | 0.0 | 0.0 | 0.00 | 0.00 | 0.00 | 83 | 1022.5 |
| 20260502014403 | 44 | 201 | 0.0 | 0.0 | 0.00 | 0.00 | 0.00 | 83 | 1022.5 |
| 20260502013857 | 44 | 201 | 0.0 | 0.0 | 0.00 | 0.00 | 0.00 | 82 | 1022.6 |
| 20260502013841 | 44 | 201 | 0.0 | 0.0 | 0.00 | 0.00 | 0.00 | 82 | 1022.8 |
| 20260502012845 | 44 | 201 | 0.0 | 0.0 | 0.00 | 0.00 | 0.00 | 83 | 1022.6 |
| 20260502012339 | 45 | 201 | 0.0 | 0.0 | 0.00 | 0.00 | 0.00 | 82 | 1022.6 |
| 20260502011832 | 45 | 201 | 0.0 | 0.0 | 0.00 | 0.00 | 0.00 | 82 | 1022.8 |
| 20260502011326 | 45 | 201 | 0.0 | 0.0 | 0.00 | 0.00 | 0.00 | 81 | 1022.6 |
| 20260502010821 | 45 | 201 | 0.0 | 0.0 | 0.00 | 0.00 | 0.00 | 81 | 1022.8 |
| 20260502010315 | 45 | 201 | 0.0 | 0.0 | 0.00 | 0.00 | 0.00 | 82 | 1022.8 |
| 20260502010256 | 45 | 201 | 0.0 | 0.0 | 0.00 | 0.00 | 0.00 | 82 | 1022.8 |
| 20260502005305 | 45 | 201 | 0.0 | 0.0 | 0.00 | 0.00 | 0.00 | 82 | 1022.8 |
| 20260502005241 | 45 | 201 | 0.0 | 0.0 | 0.00 | 0.00 | 0.00 | 81 | 1022.9 |
| 20260502004251 | 45 | 201 | 0.0 | 0.0 | 0.00 | 0.00 | 0.00 | 81 | 1022.9 |
| 20260502003745 | 46 | 201 | 0.0 | 0.0 | 0.00 | 0.00 | 0.00 | 81 | 1022.9 |
| 20260502003554 | 46 | 200 | 0.0 | 0.0 | 0.00 | 0.00 | 0.00 | 81 | 1022.8 |
| 20260502003504 | 46 | 200 | 0.0 | 0.0 | 0.00 | 0.00 | 0.00 | 81 | 1022.9 |
| 20260502002228 | 46 | 200 | 0.0 | 0.0 | 0.00 | 0.00 | 0.00 | 81 | 1022.9 |
| 20260502001721 | 46 | 200 | 0.0 | 0.0 | 0.00 | 0.00 | 0.00 | 81 | 1022.9 |
| 20260502001215 | 46 | 200 | 0.0 | 0.0 | 0.00 | 0.00 | 0.00 | 81 | 1022.8 |
| 20260502000709 | 46 | 200 | 0.0 | 0.0 | 0.00 | 0.00 | 0.00 | 80 | 1022.9 |
| 20260502000204 | 46 | 200 | 0.0 | 0.0 | 0.00 | 0.00 | 0.00 | 80 | 1022.9 |
| 20260501235657 | 46 | 200 | 0.0 | 0.0 | 0.00 | 0.00 | 0.00 | 80 | 1023.0 |
| 20260501235151 | 46 | 200 | 0.0 | 0.0 | 0.00 | 0.00 | 0.00 | 79 | 1023.1 |
| 20260501234645 | 46 | 200 | 0.0 | 0.0 | 0.00 | 0.00 | 0.00 | 78 | 1023.1 |
| 20260501234139 | 47 | 200 | 0.0 | 0.0 | 0.00 | 0.00 | 0.00 | 78 | 1023.0 |
| 20260501233633 | 47 | 200 | 0.0 | 0.0 | 0.00 | 0.00 | 0.00 | 78 | 1023.0 |
| 20260501233614 | 47 | 200 | 0.0 | 0.0 | 0.00 | 0.00 | 0.00 | 79 | 1023.0 |
| 20260501232620 | 47 | 201 | 0.0 | 0.0 | 0.00 | 0.00 | 0.00 | 78 | 1023.1 |
| 20260501232115 | 47 | 201 | 0.0 | 0.0 | 0.00 | 0.00 | 0.00 | 78 | 1023.0 |